Regional Weather Roundup
Issued by NWS

Home | Current Version | Previous Version | Text Only | Print | Product List | Glossary Off
Versions: 1 2 3 4 5 6 7 8 9 10 11 12 13 14 15 16 17 18 19 20 21 22 23 24 25 26 27 28 29 30 31 32 33 34 35 36 37 38 39 40 41 42 43 44 45 46 47 48 49 50

000
ASUS43 KOAX 240602
RWRNE

WEATHER ROUNDUP FOR NEBRASKA
NATIONAL WEATHER SERVICE OMAHA NE
1200 AM CST TUE JAN 24 2017

NOTES: SATELLITE DATA IS BEING USED TO AUGMENT CLOUD COVER ABOVE
       12000 FEET.
       "FAIR" INDICATES FEW OR NO CLOUDS BELOW 12,000 FEET WITH NO
       SIGNIFICANT WEATHER AND/OR OBSTRUCTIONS TO VISIBILITY.

  * THESE STATIONS DO NOT REPORT WEATHER SUCH AS RAIN...SNOW OR FOG.

NEZ001>004-019>022-054>056-240700-
NEBRASKA PANHANDLE

CITY           SKY/WX    TMP DP  RH WIND       PRES   REMARKS
SCOTTSBLUFF    CLOUDY    30  26  85 NE16      29.57R WCI  19
6HR MIN TEMP:  30; 6HR MAX TEMP:  40; 6HR PCP: TRACE;

ALLIANCE       FOG       27  26  96 NE15      29.58F VSB 3/4 WCI  15
6HR MIN TEMP:  27; 6HR MAX TEMP:  37;

CHADRON        FOG       24  23  96 NE15      29.67F VSB 1/2 WCI  11
6HR MIN TEMP:  24; 6HR MAX TEMP:  28;

KIMBALL        CLOUDY    35  34  96 E6        29.51F WCI  30
SIDNEY         CLOUDY    34  30  85 E7        29.52F WCI  28
6HR MIN TEMP:  31; 6HR MAX TEMP:  37; 6HR PCP: TRACE;

$$

NEZ057>060-069>072-079>082-240700-
SOUTHWEST NEBRASKA

CITY           SKY/WX    TMP DP  RH WIND       PRES   REMARKS
NORTH PLATTE   CLOUDY    32  30  92 E14       29.62S WCI  22
6HR MIN TEMP:  30; 6HR MAX TEMP:  42;

IMPERIAL       CLEAR     31  28  89 E8        29.54F WCI  23
6HR MIN TEMP:  30; 6HR MAX TEMP:  44;

LEXINGTON      CLOUDY    33  32  98 E12       29.63F FOG     WCI  24
MCCOOK         CLEAR     32  30  92 E13       29.55F WCI  22
6HR MIN TEMP:  32; 6HR MAX TEMP:  46;

OGALLALA       CLOUDY    36  31  80 NE6       29.57F WCI  32
$$

NEZ005>010-023>029-035>040-094-240700-
NORTH CENTRAL NEBRASKA

CITY           SKY/WX    TMP DP  RH WIND       PRES   REMARKS
VALENTINE      FOG       31  29  92 SE6       29.67S VSB 1/2 WCI  25
6HR MIN TEMP:  28; 6HR MAX TEMP:  39;

AINSWORTH      CLOUDY    31  31 100 SE7       29.68F FOG     WCI  25
BROKEN BOW     FOG       32  32 100 E13G25    29.66F VSB 1/4 WCI  22
6HR MIN TEMP:  31; 6HR MAX TEMP:  38;

O`NEILL        CLOUDY    32  31  98 SE8       29.73S FOG     WCI  25
ORD            CLOUDY    31  29  92 SE12      29.70S FOG     WCI  22
6HR MIN TEMP:  31; 6HR MAX TEMP:  33;

THEDFORD       FOG       32  31  98 E9        29.65F VSB 1   WCI  24
$$

NEZ041-046>049-061>064-073>077-083>087-240700-
SOUTH CENTRAL NEBRASKA

CITY           SKY/WX    TMP DP  RH WIND       PRES   REMARKS
GRAND ISLAND   CLOUDY    32  32 100 E12       29.71F FOG     WCI  23
6HR MIN TEMP:  31; 6HR MAX TEMP:  32;

AURORA         CLOUDY    32  32 100 E14       29.71F FOG     WCI  22
HASTINGS       CLOUDY    32  31  96 E16       29.69F FOG     WCI  21
6HR MIN TEMP:  32; 6HR MAX TEMP:  35;

HEBRON         CLEAR     31  31 100 E6        29.71F FOG     WCI  26
HOLDREGE       CLOUDY    32  31  96 E13G20    29.63S FOG     WCI  22
KEARNEY *      CLOUDY    32  28  86 E14       29.67F VSB 1/2 WCI  22
YORK           PTCLDY    32  32 100 E13       29.74F FOG     WCI  22
$$

NEZ011>018-030>034-042>045-240700-
NORTHEAST NEBRASKA

CITY           SKY/WX    TMP DP  RH WIND       PRES   REMARKS
NORFOLK        CLOUDY    30  28  92 SE9       29.76F FOG     WCI  22
6HR MIN TEMP:  30; 6HR MAX TEMP:  32;

ALBION         CLOUDY    32  30  92 SE10      29.75S FOG     WCI  23
BLAIR          CLOUDY    31  29  94 E7        29.81F FOG     WCI  24
FREMONT        MOCLDY    31  30  98 E6        29.80F WCI  25
TEKAMAH        CLOUDY    31  28  89 SE12      29.84S WCI  22
6HR MIN TEMP:  31; 6HR MAX TEMP:  33;

WAYNE          CLOUDY    31  30  96 SE12      29.80S WCI  21
$$

NEZ050>053-065>068-078-088>093-240700-
SOUTHEAST NEBRASKA

CITY           SKY/WX    TMP DP  RH WIND       PRES   REMARKS
LINCOLN        CLOUDY    31  29  92 E7        29.80F WCI  24
6HR MIN TEMP:  31; 6HR MAX TEMP:  35;

OMAHA EPPLEY   CLOUDY    31  26  82 E5        29.84F WCI  26
6HR MIN TEMP:  31; 6HR MAX TEMP:  34;

BEATRICE       CLEAR     32  31  96 E8        29.75F FOG     WCI  25
FALLS CITY     CLEAR     30  28  92 E8        29.80F WCI  22
6HR MIN TEMP:  28; 6HR MAX TEMP:  35;

NEBRASKA CITY  CLEAR     30  30 100 E7        29.81S FOG     WCI  23
PLATTSMOUTH    CLEAR     28  26  89 E7        29.81S FOG     WCI  21
$$

NEZ044-045-051>053-067-240700-
OMAHA AREA

CITY           SKY/WX    TMP DP  RH WIND       PRES   REMARKS
OMAHA EPPLEY   CLOUDY    31  26  82 E5        29.84F WCI  26
6HR MIN TEMP:  31; 6HR MAX TEMP:  34;

BLAIR          CLOUDY    31  29  94 E7        29.81F FOG     WCI  24
FREMONT        MOCLDY    31  30  98 E6        29.80F WCI  25
MILLARD        CLEAR     32  30  92 E3        29.82F
OFFUTT AFB     CLEAR     27  27 100 NE7       29.81F WCI  20
PLATTSMOUTH    CLEAR     28  26  89 E7        29.81S FOG     WCI  21
WAHOO          FAIR      30  28  94 E6        29.80F WCI  24
$$



USA.gov is the U.S. government's official web portal to all federal, state and local government web resources and services.